Location: Allaines
(49.9632°N, 2.9458°E)
Time: 04:43:09
(UTC+00:00)

Daily predictions for brighter satellites

Satellite Brightness Start Highest point End
(mag) Time Altitude Azimuth Time Altitude Azimuth Time Altitude Azimuth
Cosmos 1707 Rocket 3.5 00:00:02 10° NNW 00:04:22 70° W 00:05:18 52° SSW
Okean 1 3.2 00:00:44 10° NNW 00:04:47 81° W 00:05:27 61° S
Cosmos 2285 Rocket 4.2 00:07:26 10° NNW 00:13:38 58° WSW 00:16:07 35° SSW
Cosmos 2333 Rocket 2.5 00:08:49 10° NW 00:14:17 52° WSW 00:16:02 38° SSW
Cosmos 494 Rocket 4.0 00:13:18 42° S 00:14:52 65° ESE 00:19:58 10° NNE
Meteor 1-25 Rocket 4.4 00:18:07 34° SW 00:20:35 64° WNW 00:26:09 10° N
Cosmos 2084 3.7 00:20:13 33° WSW 00:21:52 62° NW 00:26:04 10° NE
ATLAS 5 CENTAUR R/B 2.4 00:17:28 10° NW 00:22:51 76° NE 00:28:59 11° SE
Cosmos 2360 Rocket 3.6 00:19:38 10° NW 00:23:56 23° WSW 00:25:10 21° WSW
Cosmos 1452 Rocket 4.2 00:20:46 10° NW 00:25:39 40° WSW 00:26:58 34° SW
Cosmos 1980 4.1 00:20:30 10° NNW 00:26:09 62° ENE 00:30:19 18° SE
Cosmos 2242 Rocket 4.5 00:22:05 10° N 00:26:17 42° ENE 00:28:16 26° SE
PSLV R/B 3.8 00:21:54 10° NNE 00:26:41 78° WNW 00:28:18 42° SSW
Cosmos 1666 2.9 00:29:45 50° SE 00:30:24 59° E 00:34:13 10° NNE
Cosmos 2322 4.3 00:25:18 10° NW 00:30:39 41° WSW 00:32:15 34° SW
Meteor 1-14 Rocket 4.2 00:30:32 38° S 00:32:47 80° E 00:38:23 10° NNE
Cosmos 1378 4.0 00:31:43 10° N 00:35:16 43° ENE 00:36:24 32° ESE
Cosmos 1536 4.3 00:40:02 22° ESE 00:41:23 27° E 00:44:49 10° NNE
Resurs 1-4 Rocket 3.4 00:36:46 10° NNE 00:41:26 30° E 00:44:08 20° SE
Cosmos 2297 Rocket 3.0 00:46:29 27° SSE 00:48:49 40° ESE 00:54:03 10° NE
NOSS 3-1 (C) 4.5 00:42:59 10° NW 00:50:03 44° WSW 00:54:01 28° S
Cosmos 2237 Rocket 2.2 00:45:03 10° NNW 00:50:46 85° ENE 00:54:35 22° SSE
Meteor 2-17 Rocket 4.4 00:54:55 33° S 00:57:53 87° W 01:03:59 10° N
Cosmos 2227 Rocket 3.1 00:56:52 24° SSE 00:59:26 36° ESE 01:04:34 10° NE
TSX-5 4.1 00:59:09 43° SSE 00:59:52 50° ESE 01:04:06 10° NE
USA 229 DEB 4.1 00:53:53 10° NW 01:00:57 53° WSW 01:05:34 24° S
USA 229 4.1 00:53:59 10° NW 01:01:04 54° WSW 01:05:44 24° S
Cosmos 1709 Rocket 4.0 00:58:20 30° S 01:01:41 79° E 01:08:04 10° NNE
Cosmos 1470 Rocket 3.8 01:00:37 39° SW 01:01:57 58° WNW 01:06:14 10° N
Meteor 2-4 Rocket 4.1 00:56:56 10° NNW 01:02:42 53° W 01:05:16 31° SSW
EO 1 Del DPAF 3.4 00:59:12 10° N 01:02:52 57° WNW 01:03:46 43° WSW
COSMOS 2487 4.4 01:07:03 17° W 01:08:17 20° NW 01:10:55 10° N
NOSS 0 Rocket 4.1 01:02:32 10° NW 01:08:35 53° WSW 01:11:33 29° S
Cosmos 1933 Rocket 3.6 01:07:30 40° SSW 01:09:04 75° W 01:13:34 10° N
Cosmos 1745 Rocket 4.2 01:06:16 29° SW 01:09:27 59° WNW 01:15:39 10° N
UNK 4.3 01:06:33 19° SE 01:09:43 57° ENE 01:14:19 10° N
USA 267 4.2 01:04:50 10° ENE 01:11:04 48° N 01:17:17 10° WNW
COSMOS 2428 3.7 01:06:26 10° NW 01:11:16 29° WSW 01:12:40 26° SW
YAOGAN 11 4.3 01:10:25 37° SSW 01:12:00 60° WSW 01:16:32 10° NNW
Cosmos 1633 Rocket 4.4 01:10:54 22° WSW 01:12:33 29° WNW 01:16:23 10° N
MOZ.5/SAFIR/RUBIN 5/SL-8 3.8 01:11:26 35° S 01:13:25 69° WSW 01:18:09 10° NNW
SL-16 R/B 3.0 01:08:05 10° NNW 01:13:37 52° NE 01:19:08 10° SE
Lacrosse 5 3.1 01:12:35 23° SSE 01:13:58 26° SE 01:18:07 10° ENE
CZ-2D R/B 2.6 01:10:24 10° NNE 01:15:40 54° E 01:18:42 25° SSE
ADEOS Rocket 3.3 01:11:00 12° SE 01:16:07 58° ENE 01:21:30 10° N
Okean 1-7 3.0 01:12:28 10° NNW 01:16:41 63° W 01:18:05 39° SSW
SL-16 R/B 2.6 01:13:31 18° SSE 01:18:18 82° ENE 01:24:31 10° NNW
COSMOS 2455 3.5 01:14:38 18° WSW 01:18:58 51° NW 01:24:51 10° NNE
Cosmos 1544 3.2 01:18:15 41° SSE 01:19:20 66° E 01:22:58 10° NNE
Helios 1A 3.2 01:18:25 38° SSW 01:19:44 55° W 01:23:55 10° NNW
Okean 3 3.5 01:16:31 10° N 01:20:52 84° E 01:22:53 31° SSE
NOSS 3-1 (A) 4.4 01:14:08 10° NW 01:21:15 45° WSW 01:26:38 21° S
BREEZE-M DEB (TANK) 4.3 01:22:27 15° ESE 01:22:27 15° ESE 01:23:14 10° E
Cosmos 2219 Rocket 3.6 01:17:40 10° NW 01:21:35 20° W 01:22:37 19° WSW
ARGOS Delta rocket 4.0 01:18:56 10° N 01:23:44 62° WNW 01:25:47 32° SW
ADEOS II 3.4 01:19:31 10° NNE 01:24:16 33° E 01:28:02 15° SSE
Cosmos 1340 Rocket 3.1 01:27:12 36° SW 01:28:27 54° WNW 01:32:19 10° N
CZ-4 R/B 4.1 01:23:39 10° N 01:28:33 64° WNW 01:31:02 29° SW
Cosmos 1743 3.0 01:33:42 30° SSE 01:35:23 62° E 01:39:11 10° NNE
Cosmos 1269 Rocket 4.1 01:34:36 28° SW 01:37:25 72° WNW 01:42:43 10° NNE
NOSS 2-2 (D) 4.3 01:32:37 10° NW 01:37:49 73° SW 01:45:08 10° SSE
AQUA 4.2 01:34:18 10° NNE 01:39:00 56° E 01:41:55 22° S
ASTEX 1 3.7 01:38:33 29° SSW 01:40:48 51° W 01:45:36 10° NNW
Helios 1B rocket 2.8 01:39:13 10° NNE 01:43:17 58° ESE 01:45:31 25° S
Cosmos 2219 3.2 01:42:03 26° SSW 01:45:27 84° ESE 01:51:16 10° NNE
Cosmos 1703 Rocket 4.5 01:41:36 10° NNW 01:45:28 32° W 01:46:53 26° SW
Cosmos 1066 Rocket 4.5 01:40:22 10° NNW 01:46:04 56° W 01:49:38 23° SSW
Cosmos 2074 Rocket 4.2 01:43:18 19° S 01:47:57 70° E 01:54:09 10° NNE
Iridium 4 Rocket 4.3 01:48:52 10° N 01:54:07 53° E 01:59:44 10° SSE
Cosmos 2084 Rocket 3.6 01:50:17 10° NW 01:54:22 49° SW 01:57:52 14° SSE
Cosmos 2181 Rocket 4.3 01:51:19 10° NNW 01:57:30 54° W 02:01:43 20° SSW
Meteor 1-11 Rocket 4.0 01:54:11 23° SW 01:57:31 56° WNW 02:02:58 10° N
Cosmos 192 4.4 01:52:48 10° NNW 01:57:45 84° ENE 02:02:41 10° SSE
Cosmos 1992 Rocket 4.1 01:55:29 10° NNW 02:00:38 57° WSW 02:04:37 17° S
Cosmos 2082 4.0 02:02:39 19° S 02:06:43 61° ESE 02:12:22 10° NE
ATLAS 5 CENTAUR R/B 3.3 02:02:30 10° WNW 02:07:18 27° WSW 02:10:23 19° SSW
MINOTAUR 4 R/B 4.0 02:05:02 17° SSE 02:07:42 89° E 02:11:19 10° NNW
Cosmos 1733 Rocket 3.2 02:05:38 19° S 02:08:49 72° E 02:13:17 10° NNE
Cosmos 1842 3.2 02:05:56 10° N 02:09:50 83° E 02:13:03 14° SSE
CZ-4C R/B 3.2 02:04:23 10° NW 02:11:22 72° NE 02:19:37 10° SE
IDEFIX/ARIANE 42P 3.2 02:11:58 10° NNE 02:17:03 52° E 02:22:01 10° S
Cosmos 1536 4.0 02:15:44 19° WSW 02:17:43 29° WNW 02:21:17 10° N
Resurs 1-4 Rocket 2.7 02:16:21 10° N 02:21:26 47° WNW 02:25:12 17° SW
CBERS-1 4.4 02:19:52 10° NNE 02:24:59 62° ESE 02:29:52 11° S
Meteor 1-29 2.8 02:27:35 10° NNE 02:30:55 80° WNW 02:33:12 19° SSW
Cosmos 2251 Rocket 3.5 02:27:52 17° SSW 02:31:59 84° WNW 02:37:20 10° NNE
Cosmos 2297 Rocket 3.0 02:28:17 14° WSW 02:32:50 43° NW 02:38:15 10° NNE
Cosmos 2237 Rocket 3.7 02:30:23 10° WNW 02:34:05 18° W 02:36:20 15° SW
NPP 4.2 02:29:22 10° N 02:34:31 46° WNW 02:38:43 15° SW
Cosmos 1340 4.5 02:34:42 10° N 02:38:07 32° ENE 02:41:32 10° SE
Okean 2 3.4 02:35:22 10° NNW 02:39:33 78° W 02:43:42 10° S
Nadezhda 3 Rocket 4.1 02:33:34 10° NNW 02:39:54 67° W 02:46:10 10° S
Cosmos 1603 4.3 02:35:01 10° NNW 02:40:36 62° ENE 02:46:11 10° SE
SL-08 R/B 4.2 02:37:03 10° SE 02:41:51 54° ENE 02:46:42 10° N
Cosmos 1238 Rocket 2.2 02:40:33 15° S 02:43:01 88° ESE 02:46:27 10° N
Cosmos 2227 Rocket 2.9 02:38:41 14° WSW 02:43:24 45° NW 02:48:51 10° NNE
Cosmos 2221 Rocket 4.4 02:40:01 10° NNW 02:44:08 35° W 02:47:39 14° SSW
Spot 1 4.1 02:41:36 10° SSE 02:45:46 80° ENE 02:49:51 10° NNW
Cosmos 1626 4.5 02:43:22 10° NNE 02:46:30 25° ENE 02:49:37 10° SE
CZ-2C R/B 4.3 02:43:22 10° NE 02:47:05 24° E 02:50:47 10° SSE
Cosmos 1674 4.0 02:43:41 10° N 02:47:22 42° ENE 02:51:02 10° SSE
BREEZE-M DEB (TANK) 4.4 02:38:45 13° SW 02:47:28 42° SSE 02:50:49 10° E
Timation 2 Rocket 4.3 02:46:39 13° SW 02:51:55 54° NW 02:57:57 10° NNE
CZ-4C R/B 3.4 02:48:06 10° S 02:52:09 75° WSW 02:56:28 10° NNW
USA 267 3.9 02:47:09 10° E 02:53:35 62° NNE 03:00:02 10° WNW
CZ-2D R/B 3.4 02:50:57 10° N 02:55:26 28° WNW 02:59:57 10° WSW
Meteor 2-9 Rocket 4.2 02:51:21 12° SSW 02:56:15 61° WNW 03:01:34 10° N
Lacrosse 5 1.9 02:51:46 12° WSW 02:56:30 84° NNW 03:01:36 10° ENE
SL-16 R/B 3.0 02:52:35 10° NW 02:57:31 31° WSW 03:02:25 10° SSW
Cosmos 1140 Rocket 3.7 02:54:52 10° SSW 03:00:04 72° ESE 03:05:19 10° NNE
ADEOS Rocket 3.9 02:57:57 11° SW 03:02:05 24° W 03:06:30 10° NW
SL-16 R/B 3.9 02:58:37 11° SW 03:02:38 20° W 03:07:05 10° NW
ARIANE 5 R/B 3.0 02:57:35 10° NNE 03:02:42 62° ESE 03:07:51 10° S
ADEOS II 2.8 02:59:07 10° N 03:04:03 42° WNW 03:08:57 10° SW
CZ-4B R/B 4.1 03:00:23 10° NNE 03:05:12 54° E 03:09:54 10° S
IRS-1C 4.3 03:01:29 10° NNE 03:06:52 81° ESE 03:12:12 10° SSW
Cosmos 1674 Rocket 4.3 03:03:04 10° NNW 03:07:05 35° W 03:11:06 10° SSW
ATLAS 2AS CENTAUR R/B 4.3 03:03:13 10° NW 03:10:17 41° NNE 03:16:52 10° E
ATLAS CENTAUR R/B 2.9 03:08:14 10° S 03:11:24 26° ESE 03:14:45 10° ENE
NOSS 3-3 (A) 4.4 03:05:59 10° SSW 03:11:37 57° ESE 03:18:03 10° NE
NOSS 3-3 (C) 4.4 03:06:08 10° SSW 03:11:44 56° ESE 03:18:08 10° NE
Cosmos 2263 Rocket 2.4 03:06:07 10° SSW 03:11:45 72° ESE 03:17:27 10° NNE
Cosmos 1461 3.3 03:11:01 10° SSW 03:15:35 70° SE 03:20:00 10° NE
IRS-1D 4.1 03:11:00 10° N 03:15:38 42° WNW 03:20:19 10° SW
Cosmos 1975 3.8 03:13:52 10° SW 03:17:36 34° WNW 03:21:22 10° N
Helios 1B rocket 4.3 03:15:21 10° NNW 03:18:08 18° WNW 03:20:55 10° WSW
Cosmos 1805 4.2 03:19:21 10° S 03:23:06 49° E 03:26:54 10° NNE
Cosmos 1975 Rocket 3.1 03:20:12 10° N 03:24:39 85° W 03:29:02 10° S
In-Cosmos 22 4.5 03:19:31 10° NNW 03:25:08 53° W 03:30:41 10° S
KORONAS-FOTON 3.9 03:23:53 10° NNW 03:27:47 67° W 03:31:40 10° S
SL-14 R/B 4.4 03:25:02 10° N 03:28:48 47° ENE 03:32:34 10° SSE
